Weather History for Sedalia, MO

Change the Weather History Date:

Wednesday, May 8, 2013

  Actual Average Record
Temperature  
Mean Temperature 64 °F 63 °F  
Max Temperature 73 °F 73 °F 88 °F (2000)
Min Temperature 54 °F 53 °F 32 °F (1989)
Degree Days  
Heating Degree Days 1 4  
Month to date heating degree days 92 35  
Since 1 July heating degree days 4691 4517  
Cooling Degree Days 0 2  
Month to date cooling degree days 3 13  
Year to date cooling degree days 29 47  
Growing Degree Days 13 (Base 50)    
Moisture  
Dew Point 54 °F    
Average Humidity 73    
Maximum Humidity 89    
Minimum Humidity 57    
Precipitation  
Precipitation 0.01 in 0.15 in 2.10 in (1961)
Month to date precipitation 1.23 1.33  
Year to date precipitation 14.95 11.79  
Sea Level Pressure  
Sea Level Pressure 29.99 in    
Wind  
Wind Speed 8 mph (South)    
Max Wind Speed 17 mph    
Max Gust Speed 22 mph    
Visibility 10 miles    
Events Rain    
T = Trace of Precipitation, MM = Missing Value Source: NWS Daily Summary

Daily Weather History Graph

Daily Weather History Graph

Search for Another Location

Airport:

Trip Planner

Search our weather history database for the weather conditions in past years. The results will help you decide how hot, cold, wet, or windy it might be!

Date:

Astronomy

May. 08, 2013 Rise Set
Actual Time 6:07 AM CDT 8:11 PM CDT
Civil Twilight 5:37 AM CDT 8:41 PM CDT
Nautical Twilight 5:02 AM CDT 9:17 PM CDT
Astronomical Twilight 4:23 AM CDT 9:56 PM CDT
Moon 5:14 AM CDT (5/8) 7:11 PM CDT (5/8)
Length of Visible Light 15h 03m
Length of Day
14h 04m
Waning Crescent, 2% of the Moon is Illuminated
May 8
Waning Crescent
May 9
New
May 17
First Quarter
May 24
Full
May 31
Last Quarter

Hourly Weather History & Observations

Time (CDT) Temp. Dew Point Humidity Pressure Visibility Wind Dir Wind Speed Gust Speed Precip Events Conditions
12:53 AM 62.1 °F 50.0 °F 65% 30.00 in 10.0 mi SW 5.8 mph - N/A   Clear
1:53 AM 59.0 °F 51.1 °F 75% 29.99 in 10.0 mi Calm Calm - N/A   Clear
2:53 AM 57.9 °F 52.0 °F 81% 29.99 in 10.0 mi SSW 3.5 mph - N/A   Clear
3:53 AM 61.0 °F 48.9 °F 64% 29.98 in 10.0 mi SSW 3.5 mph - N/A   Clear
4:53 AM 57.0 °F 48.9 °F 74% 29.98 in 10.0 mi Calm Calm - N/A   Clear
5:53 AM 54.0 °F 50.0 °F 86% 29.99 in 10.0 mi Calm Calm - N/A   Clear
6:53 AM 55.9 °F 51.1 °F 84% 30.01 in 10.0 mi SSE 3.5 mph - N/A   Overcast
7:53 AM 62.1 °F 53.1 °F 72% 30.02 in 10.0 mi South 5.8 mph - N/A   Mostly Cloudy
8:53 AM 68.0 °F 55.0 °F 63% 30.02 in 10.0 mi South 9.2 mph - N/A   Clear
9:53 AM 70.0 °F 54.0 °F 57% 30.03 in 10.0 mi SSW 12.7 mph - N/A   Partly Cloudy
10:53 AM 71.1 °F 55.9 °F 59% 30.04 in 10.0 mi WSW 13.8 mph 18.4 mph N/A   Scattered Clouds
11:53 AM 70.0 °F 57.0 °F 63% 30.05 in 10.0 mi SW 10.4 mph - N/A   Mostly Cloudy
12:53 PM 68.0 °F 55.0 °F 63% 30.04 in 10.0 mi SSW 15.0 mph 18.4 mph 0.00 in Rain Light Rain
1:53 PM 66.0 °F 55.9 °F 70% 30.02 in 10.0 mi South 12.7 mph 19.6 mph 0.00 in   Overcast
2:53 PM 69.1 °F 57.9 °F 68% 30.01 in 10.0 mi South 10.4 mph - N/A   Scattered Clouds
3:53 PM 72.0 °F 57.0 °F 59% 30.00 in 10.0 mi South 12.7 mph - N/A   Partly Cloudy
4:53 PM 72.0 °F 57.0 °F 59% 29.98 in 10.0 mi South 10.4 mph - N/A   Partly Cloudy
5:53 PM 71.1 °F 57.9 °F 63% 29.96 in 10.0 mi SSE 5.8 mph - N/A   Clear
6:53 PM 72.0 °F 57.0 °F 59% 29.94 in 10.0 mi SE 8.1 mph - N/A   Scattered Clouds
7:53 PM 68.0 °F 55.9 °F 65% 29.93 in 10.0 mi SE 6.9 mph - N/A   Clear
8:53 PM 64.9 °F 55.9 °F 73% 29.93 in 10.0 mi ESE 5.8 mph - N/A   Clear
9:53 PM 64.9 °F 57.0 °F 75% 29.94 in 10.0 mi SE 8.1 mph - N/A   Clear
10:53 PM 64.9 °F 57.0 °F 75% 29.93 in 10.0 mi SE 10.4 mph - N/A   Mostly Cloudy
11:53 PM 64.0 °F 57.0 °F 78% 29.92 in 10.0 mi SE 10.4 mph - N/A   Clear